IFA4016 LLBG-EDDH

Flight info

Callsign IFA4016
Flight time 4h 19m
Altitude 34000
Route SUVAS N128 USEBE/N0472F360 N128 OTHON UN128 RDS UL609 MES UG18 GIKAS UN133 PEREN UL863 EVIVI L863 EDIKA/N0474F380 L863 OKANA DCT PARAK DCT PATAK DCT LALES DCT HDO M748 RARUP RARUP6A
Aircraft CL60/M-SBDE1E2E3FGHIJ1J4J5J7M3RWXYZ/LB1V1D1

Departure

Time 2026-04-30 17:41
Airport Ben Gurion International Airport (LLBG)

Arrival

Time 2026-04-30 22:01
Airport Hamburg Helmut Schmidt Airport (EDDH)
Time Latitude Longitude Altitude Speed Heading
2026-04-30 17:39 32.01271 34.86098 600 ft 170 kts 262°
2026-04-30 17:41 32.00406 34.70688 7096 ft 281 kts 288°
2026-04-30 17:42 32.01772 34.66285 7951 ft 289 kts 287°
2026-04-30 17:42 32.02853 34.59481 8009 ft 282 kts 271°
2026-04-30 17:43 32.03096 34.54669 9898 ft 296 kts 270°
2026-04-30 17:44 32.03458 34.47522 13281 ft 298 kts 271°
2026-04-30 17:44 32.03855 34.40167 16191 ft 305 kts 271°
2026-04-30 17:46 32.04563 34.27666 20493 ft 312 kts 272°
2026-04-30 17:47 32.07357 34.18080 23422 ft 323 kts 298°
2026-04-30 17:48 32.12024 34.08895 26104 ft 332 kts 298°
2026-04-30 17:48 32.15583 34.01846 27852 ft 338 kts 298°
2026-04-30 17:49 32.20927 33.92560 29890 ft 347 kts 302°
2026-04-30 17:50 32.26585 33.83162 31531 ft 355 kts 302°
2026-04-30 17:51 32.30884 33.76015 32561 ft 361 kts 302°
2026-04-30 17:52 32.35261 33.68728 33518 ft 364 kts 302°
2026-04-30 17:53 32.42788 33.56159 34009 ft 392 kts 302°
2026-04-30 17:54 32.49308 33.45231 34010 ft 416 kts 302°
2026-04-30 17:56 32.62890 33.22368 34008 ft 426 kts 302°
2026-04-30 17:58 32.73090 33.05104 34005 ft 428 kts 302°
2026-04-30 18:00 32.86490 32.82299 34013 ft 428 kts 303°
2026-04-30 18:01 32.94974 32.67788 34011 ft 428 kts 302°
2026-04-30 18:02 33.05155 32.50299 34023 ft 429 kts 303°
2026-04-30 18:04 33.15324 32.32746 34035 ft 430 kts 302°
2026-04-30 18:06 33.28817 32.09327 34032 ft 428 kts 302°
2026-04-30 18:08 33.40566 31.88814 34018 ft 428 kts 302°
2026-04-30 18:10 33.53386 31.66295 34016 ft 427 kts 302°
2026-04-30 18:11 33.65575 31.44758 34017 ft 426 kts 302°
2026-04-30 18:13 33.73869 31.30030 34015 ft 426 kts 302°
2026-04-30 18:14 33.82116 31.15326 34012 ft 425 kts 302°
2026-04-30 18:15 33.91968 30.97682 34013 ft 424 kts 302°
2026-04-30 18:16 33.98517 30.85904 34016 ft 424 kts 302°
2026-04-30 18:17 34.01806 30.79973 34011 ft 424 kts 302°
2026-04-30 18:18 34.06694 30.71142 34009 ft 423 kts 302°
2026-04-30 18:18 34.09948 30.65252 34012 ft 423 kts 302°
2026-04-30 18:19 34.13197 30.59359 34010 ft 422 kts 302°
2026-04-30 18:19 34.16441 30.53466 34009 ft 422 kts 302°
2026-04-30 18:20 34.19683 30.47568 34009 ft 422 kts 302°
2026-04-30 18:20 34.22912 30.41683 34017 ft 422 kts 302°
2026-04-30 18:21 34.26131 30.35806 34018 ft 421 kts 302°
2026-04-30 18:21 34.29362 30.29899 34014 ft 421 kts 301°
2026-04-30 18:22 34.32591 30.23985 34018 ft 421 kts 301°
2026-04-30 18:22 34.37403 30.15154 34021 ft 421 kts 302°
2026-04-30 18:23 34.40620 30.09239 34013 ft 422 kts 302°
2026-04-30 18:23 34.43835 30.03317 34013 ft 422 kts 302°
2026-04-30 18:24 34.49517 29.95190 34012 ft 424 kts 312°
2026-04-30 18:25 34.53666 29.90087 34005 ft 425 kts 312°
2026-04-30 18:25 34.59891 29.82414 34011 ft 425 kts 312°
2026-04-30 18:26 34.66088 29.74756 34008 ft 426 kts 311°
2026-04-30 18:27 34.72318 29.67036 34011 ft 427 kts 311°
2026-04-30 18:28 34.78554 29.59291 34019 ft 428 kts 312°
2026-04-30 18:28 34.84787 29.51531 34018 ft 429 kts 312°
2026-04-30 18:29 34.92763 29.41592 36544 ft 377 kts 311°
2026-04-30 18:30 34.95741 29.37875 37700 ft 361 kts 310°
2026-04-30 18:30 34.99907 29.32835 38014 ft 371 kts 316°
2026-04-30 18:31 35.06287 29.27009 38005 ft 389 kts 318°
2026-04-30 18:32 35.12871 29.21009 38009 ft 403 kts 319°
2026-04-30 18:33 35.19696 29.14773 38019 ft 415 kts 319°
2026-04-30 18:33 35.26702 29.08356 38012 ft 425 kts 319°
2026-04-30 18:34 35.33840 29.01800 38007 ft 431 kts 319°
2026-04-30 18:35 35.38654 28.97371 38015 ft 431 kts 319°
2026-04-30 18:35 35.43427 28.92972 38009 ft 432 kts 319°
2026-04-30 18:36 35.50612 28.86338 38010 ft 431 kts 319°
2026-04-30 18:37 35.57790 28.79694 38014 ft 431 kts 319°
2026-04-30 18:37 35.62554 28.75276 38014 ft 432 kts 319°
2026-04-30 18:38 35.67371 28.70801 38007 ft 433 kts 319°
2026-04-30 18:38 35.72165 28.66342 38010 ft 433 kts 319°
2026-04-30 18:39 35.76954 28.61879 38010 ft 432 kts 319°
2026-04-30 18:39 35.81723 28.57429 38012 ft 433 kts 319°
2026-04-30 18:40 35.86527 28.52939 38009 ft 433 kts 319°
2026-04-30 18:40 35.91321 28.48452 38005 ft 433 kts 319°
2026-04-30 18:41 35.96093 28.43978 38004 ft 433 kts 319°
2026-04-30 18:41 36.00904 28.39460 38012 ft 433 kts 319°
2026-04-30 18:42 36.05689 28.34956 38012 ft 434 kts 318°
2026-04-30 18:42 36.12886 28.28164 37999 ft 434 kts 319°
2026-04-30 18:45 36.38826 28.02643 37996 ft 432 kts 313°
2026-04-30 18:46 36.43218 27.97554 38000 ft 432 kts 313°
2026-04-30 18:46 36.47604 27.92470 37990 ft 433 kts 314°
2026-04-30 18:47 36.52003 27.87365 37996 ft 433 kts 313°
2026-04-30 18:47 36.56390 27.82270 37999 ft 433 kts 313°
2026-04-30 18:48 36.60780 27.77162 38010 ft 433 kts 314°
2026-04-30 18:48 36.65176 27.72041 38003 ft 433 kts 313°
2026-04-30 18:49 36.69562 27.66925 38000 ft 433 kts 313°
2026-04-30 18:49 36.73965 27.61781 38007 ft 433 kts 314°
2026-04-30 18:50 36.78350 27.56651 38012 ft 433 kts 314°
2026-04-30 18:50 36.82735 27.51512 38002 ft 433 kts 314°
2026-04-30 18:51 36.87136 27.46346 38008 ft 434 kts 314°
2026-04-30 18:51 36.91509 27.41206 37996 ft 434 kts 314°
2026-04-30 18:52 36.95900 27.36038 38001 ft 434 kts 314°
2026-04-30 18:52 37.00299 27.30850 38000 ft 435 kts 313°
2026-04-30 18:53 37.04709 27.25643 37996 ft 434 kts 313°
2026-04-30 18:53 37.09062 27.20494 37994 ft 433 kts 313°
2026-04-30 18:54 37.13442 27.15304 37998 ft 433 kts 313°
2026-04-30 18:54 37.17825 27.10102 37995 ft 434 kts 313°
2026-04-30 18:55 37.22214 27.04883 37992 ft 434 kts 313°
2026-04-30 18:55 37.28751 26.97095 37992 ft 433 kts 313°
2026-04-30 18:56 37.35307 26.89263 37987 ft 434 kts 313°
2026-04-30 18:57 37.41950 26.81536 37988 ft 435 kts 316°
2026-04-30 18:57 37.46521 26.76615 37987 ft 435 kts 316°
2026-04-30 18:58 37.53415 26.69171 37990 ft 435 kts 316°
2026-04-30 18:59 37.60300 26.61715 37992 ft 435 kts 316°
2026-04-30 19:00 37.69467 26.51758 37992 ft 435 kts 316°
2026-04-30 19:01 37.78626 26.41801 37993 ft 435 kts 316°
2026-04-30 19:02 37.85512 26.34290 37988 ft 435 kts 315°
2026-04-30 19:03 37.94649 26.24270 37994 ft 435 kts 315°
2026-04-30 19:04 38.03801 26.14196 37991 ft 435 kts 315°
2026-04-30 19:05 38.12897 26.04145 37990 ft 435 kts 315°
2026-04-30 19:06 38.22033 25.94016 37994 ft 435 kts 315°
2026-04-30 19:06 38.29052 25.86732 37999 ft 437 kts 319°
2026-04-30 19:07 38.36297 25.79709 37994 ft 437 kts 319°
2026-04-30 19:08 38.45965 25.70283 37996 ft 438 kts 319°
2026-04-30 19:09 38.53147 25.63262 37993 ft 438 kts 319°
2026-04-30 19:09 38.57997 25.58507 38000 ft 438 kts 319°
2026-04-30 19:10 38.67612 25.49055 37999 ft 438 kts 319°
2026-04-30 19:11 38.74840 25.41926 38004 ft 438 kts 319°
2026-04-30 19:12 38.79676 25.37146 38006 ft 438 kts 319°
2026-04-30 19:12 38.84473 25.32395 38011 ft 438 kts 319°
2026-04-30 19:13 38.94128 25.22808 38012 ft 439 kts 319°
2026-04-30 19:14 38.98925 25.18032 38031 ft 438 kts 319°
2026-04-30 19:14 39.03764 25.13206 38030 ft 438 kts 319°
2026-04-30 19:15 39.08555 25.08418 38038 ft 438 kts 319°
2026-04-30 19:15 39.15760 25.01202 38035 ft 438 kts 318°
2026-04-30 19:16 39.20563 24.96382 38041 ft 437 kts 318°
2026-04-30 19:17 39.27700 24.89207 38044 ft 436 kts 318°
2026-04-30 19:17 39.34831 24.82019 38055 ft 435 kts 318°
2026-04-30 19:18 39.41996 24.74778 38061 ft 434 kts 318°
2026-04-30 19:19 39.46727 24.69987 38064 ft 434 kts 318°
2026-04-30 19:19 39.54484 24.63854 38064 ft 441 kts 329°
2026-04-30 19:20 39.59999 24.60397 38065 ft 441 kts 329°
2026-04-30 19:21 39.68241 24.55215 38074 ft 439 kts 329°
2026-04-30 19:22 39.79214 24.48294 38076 ft 439 kts 329°
2026-04-30 19:23 39.95641 24.37886 38077 ft 438 kts 329°
2026-04-30 19:24 40.03827 24.32678 38080 ft 437 kts 328°
2026-04-30 19:25 40.17459 24.23975 38103 ft 436 kts 328°
2026-04-30 19:26 40.28370 24.16980 38093 ft 435 kts 328°
2026-04-30 19:27 40.36526 24.11735 38119 ft 436 kts 328°
2026-04-30 19:28 40.44659 24.06491 38113 ft 435 kts 328°
2026-04-30 19:29 40.55465 23.99502 38121 ft 434 kts 327°
2026-04-30 19:30 40.66345 23.92580 38109 ft 435 kts 328°
2026-04-30 19:31 40.77242 23.85729 38112 ft 434 kts 328°
2026-04-30 19:31 40.85405 23.80579 38127 ft 434 kts 328°
2026-04-30 19:32 40.90851 23.77136 38136 ft 433 kts 328°
2026-04-30 19:32 40.96281 23.73695 38119 ft 434 kts 328°
2026-04-30 19:33 41.01702 23.70255 38172 ft 433 kts 328°
2026-04-30 19:33 41.07120 23.66808 38122 ft 435 kts 328°
2026-04-30 19:34 41.12568 23.63338 38088 ft 434 kts 328°
2026-04-30 19:35 41.20713 23.58137 38119 ft 434 kts 328°
2026-04-30 19:35 41.26151 23.54653 38091 ft 433 kts 328°
2026-04-30 19:36 41.31595 23.51155 38127 ft 436 kts 328°
2026-04-30 19:36 41.39771 23.45890 38161 ft 437 kts 328°
2026-04-30 19:37 41.45268 23.42318 38150 ft 439 kts 328°
2026-04-30 19:37 41.50708 23.38774 38180 ft 438 kts 328°
2026-04-30 19:38 41.56171 23.35208 38188 ft 437 kts 328°
2026-04-30 19:38 41.61664 23.31614 38165 ft 438 kts 328°
2026-04-30 19:39 41.67121 23.28037 38175 ft 440 kts 328°
2026-04-30 19:39 41.72589 23.24447 38180 ft 440 kts 328°
2026-04-30 19:40 41.78110 23.20814 38130 ft 441 kts 328°
2026-04-30 19:40 41.83579 23.17210 38148 ft 440 kts 328°
2026-04-30 19:41 41.89060 23.13591 38164 ft 440 kts 328°
2026-04-30 19:41 41.94550 23.09959 38189 ft 441 kts 328°
2026-04-30 19:42 42.00045 23.06315 38194 ft 442 kts 328°
2026-04-30 19:42 42.05566 23.02648 38213 ft 443 kts 328°
2026-04-30 19:43 42.11101 22.98964 38196 ft 443 kts 328°
2026-04-30 19:44 42.19409 22.93421 38200 ft 444 kts 328°
2026-04-30 19:44 42.24954 22.89713 38216 ft 444 kts 329°
2026-04-30 19:45 42.30500 22.85997 38212 ft 445 kts 329°
2026-04-30 19:45 42.36038 22.82279 38222 ft 445 kts 329°
2026-04-30 19:46 42.41592 22.78543 38239 ft 446 kts 329°
2026-04-30 19:46 42.47143 22.74801 38242 ft 446 kts 329°
2026-04-30 19:47 42.52697 22.71051 38235 ft 448 kts 329°
2026-04-30 19:47 42.58268 22.67280 38211 ft 447 kts 329°
2026-04-30 19:48 42.63820 22.63515 38199 ft 446 kts 329°
2026-04-30 19:48 42.69362 22.59750 38191 ft 447 kts 329°
2026-04-30 19:49 42.74942 22.55951 38186 ft 446 kts 329°
2026-04-30 19:49 42.83252 22.50277 38201 ft 446 kts 329°
2026-04-30 19:50 42.88823 22.46486 38202 ft 448 kts 330°
2026-04-30 19:50 42.94410 22.42687 38222 ft 448 kts 330°
2026-04-30 19:51 43.00000 22.38877 38235 ft 450 kts 330°
2026-04-30 19:51 43.05578 22.35069 38258 ft 450 kts 330°
2026-04-30 19:52 43.11182 22.31234 38255 ft 450 kts 329°
2026-04-30 19:52 43.16803 22.27381 38269 ft 449 kts 329°
2026-04-30 19:53 43.22312 22.23595 38279 ft 448 kts 329°
2026-04-30 19:53 43.27906 22.19744 38282 ft 449 kts 329°
2026-04-30 19:54 43.33471 22.15904 38286 ft 449 kts 329°
2026-04-30 19:54 43.39061 22.12040 38280 ft 449 kts 330°
2026-04-30 19:55 43.44607 22.08197 38279 ft 449 kts 330°
2026-04-30 19:55 43.50193 22.04319 38274 ft 449 kts 330°
2026-04-30 19:56 43.55751 22.00453 38282 ft 449 kts 330°
2026-04-30 19:56 43.61331 21.96562 38277 ft 449 kts 330°
2026-04-30 19:57 43.66881 21.92685 38278 ft 449 kts 330°
2026-04-30 19:57 43.72445 21.88790 38275 ft 449 kts 330°
2026-04-30 19:58 43.78029 21.84872 38273 ft 449 kts 330°
2026-04-30 19:58 43.83549 21.80991 38267 ft 449 kts 330°
2026-04-30 19:59 43.89141 21.77051 38256 ft 449 kts 330°
2026-04-30 20:00 43.97476 21.71163 38256 ft 449 kts 330°
2026-04-30 20:00 44.03020 21.67236 38262 ft 449 kts 330°
2026-04-30 20:01 44.11344 21.61324 38294 ft 449 kts 330°
2026-04-30 20:01 44.16922 21.57352 38304 ft 450 kts 330°
2026-04-30 20:02 44.25156 21.51473 38310 ft 451 kts 331°
2026-04-30 20:03 44.33525 21.45479 38307 ft 451 kts 331°
2026-04-30 20:03 44.39100 21.41475 38306 ft 451 kts 331°
2026-04-30 20:04 44.44642 21.37487 38303 ft 451 kts 331°
2026-04-30 20:05 44.53023 21.31438 38301 ft 451 kts 331°
2026-04-30 20:05 44.61377 21.25389 38302 ft 452 kts 331°
2026-04-30 20:06 44.66964 21.21333 38296 ft 452 kts 331°
2026-04-30 20:06 44.72520 21.17291 38299 ft 452 kts 331°
2026-04-30 20:07 44.78122 21.13206 38299 ft 452 kts 331°
2026-04-30 20:08 44.86470 21.07102 38295 ft 452 kts 331°
2026-04-30 20:08 44.92030 21.03026 38290 ft 452 kts 331°
2026-04-30 20:09 44.97611 20.98925 38290 ft 453 kts 331°
2026-04-30 20:09 45.05967 20.92768 38289 ft 454 kts 332°
2026-04-30 20:10 45.14336 20.86580 38291 ft 453 kts 332°
2026-04-30 20:11 45.22691 20.80383 38296 ft 452 kts 332°
2026-04-30 20:11 45.28270 20.76233 38293 ft 453 kts 332°
2026-04-30 20:12 45.36594 20.70023 38299 ft 453 kts 332°
2026-04-30 20:13 45.42166 20.65856 38305 ft 453 kts 332°
2026-04-30 20:13 45.47727 20.61687 38308 ft 452 kts 332°
2026-04-30 20:14 45.53276 20.57517 38309 ft 452 kts 332°
2026-04-30 20:14 45.58517 20.53571 38307 ft 453 kts 332°
2026-04-30 20:15 45.64064 20.49385 38308 ft 453 kts 332°
2026-04-30 20:15 45.69617 20.45185 38309 ft 453 kts 332°
2026-04-30 20:16 45.75201 20.40951 38312 ft 453 kts 332°
2026-04-30 20:16 45.80763 20.36726 38307 ft 453 kts 332°
2026-04-30 20:17 45.86331 20.32485 38310 ft 453 kts 332°
2026-04-30 20:17 45.91864 20.28261 38311 ft 453 kts 332°
2026-04-30 20:18 45.97443 20.23993 38311 ft 454 kts 332°
2026-04-30 20:18 46.03009 20.19724 38320 ft 454 kts 332°
2026-04-30 20:19 46.08602 20.15426 38328 ft 454 kts 332°
2026-04-30 20:19 46.14161 20.11143 38330 ft 454 kts 332°
2026-04-30 20:20 46.19954 20.07634 38332 ft 454 kts 341°
2026-04-30 20:20 46.25939 20.04724 38337 ft 454 kts 341°
2026-04-30 20:21 46.31897 20.01811 38337 ft 454 kts 341°
2026-04-30 20:21 46.37871 19.98882 38340 ft 454 kts 342°
2026-04-30 20:22 46.43864 19.95935 38344 ft 454 kts 342°
2026-04-30 20:22 46.49812 19.93002 38345 ft 453 kts 342°
2026-04-30 20:23 46.55750 19.90067 38343 ft 453 kts 342°
2026-04-30 20:23 46.61726 19.87105 38342 ft 453 kts 342°
2026-04-30 20:24 46.67658 19.84158 38345 ft 453 kts 342°
2026-04-30 20:24 46.73639 19.81179 38351 ft 454 kts 342°
2026-04-30 20:25 46.82601 19.76701 38343 ft 454 kts 342°
2026-04-30 20:26 46.91534 19.72222 38351 ft 454 kts 343°
2026-04-30 20:26 47.00467 19.67727 38361 ft 454 kts 343°
2026-04-30 20:27 47.12367 19.61714 38354 ft 454 kts 343°
2026-04-30 20:28 47.24153 19.55729 38357 ft 452 kts 343°
2026-04-30 20:30 47.39015 19.48144 38365 ft 452 kts 343°
2026-04-30 20:31 47.56762 19.39026 38365 ft 450 kts 343°
2026-04-30 20:32 47.71537 19.31385 38360 ft 449 kts 343°
2026-04-30 20:33 47.80358 19.26801 38372 ft 448 kts 343°
2026-04-30 20:34 47.89199 19.22191 38368 ft 448 kts 343°
2026-04-30 20:35 47.98005 19.17582 38359 ft 448 kts 343°
2026-04-30 20:35 48.06539 19.11810 38363 ft 454 kts 330°
2026-04-30 20:36 48.11340 19.05644 38356 ft 462 kts 316°
2026-04-30 20:37 48.17679 18.94573 38356 ft 464 kts 315°
2026-04-30 20:37 48.21861 18.87215 38361 ft 464 kts 315°
2026-04-30 20:38 48.26032 18.79859 38365 ft 464 kts 315°
2026-04-30 20:38 48.30215 18.72463 38360 ft 464 kts 315°
2026-04-30 20:39 48.36470 18.61368 38356 ft 464 kts 315°
2026-04-30 20:40 48.42730 18.50218 38352 ft 464 kts 315°
2026-04-30 20:40 48.46867 18.42825 38352 ft 464 kts 315°
2026-04-30 20:41 48.53099 18.31649 38361 ft 464 kts 315°
2026-04-30 20:41 48.57242 18.24194 38364 ft 465 kts 315°
2026-04-30 20:42 48.61408 18.16678 38369 ft 466 kts 315°
2026-04-30 20:43 48.67646 18.05382 38361 ft 467 kts 315°
2026-04-30 20:43 48.71787 17.97857 38352 ft 467 kts 315°
2026-04-30 20:44 48.77997 17.86531 38357 ft 466 kts 315°
2026-04-30 20:45 48.86251 17.71420 38377 ft 466 kts 316°
2026-04-30 20:45 48.90709 17.64466 38392 ft 462 kts 321°
2026-04-30 20:46 48.99766 17.50692 38412 ft 461 kts 321°
2026-04-30 20:47 49.06545 17.40322 38406 ft 460 kts 321°
2026-04-30 20:48 49.13311 17.29924 38406 ft 462 kts 320°
2026-04-30 20:48 49.17855 17.22916 38393 ft 461 kts 320°
2026-04-30 20:49 49.22391 17.15898 38386 ft 461 kts 321°
2026-04-30 20:50 49.29091 17.05493 38396 ft 458 kts 321°
2026-04-30 20:50 49.33554 16.98538 38300 ft 458 kts 321°
2026-04-30 20:51 49.38038 16.91532 38389 ft 458 kts 321°
2026-04-30 20:51 49.44703 16.81082 38383 ft 460 kts 321°
2026-04-30 20:52 49.49174 16.74045 38388 ft 458 kts 321°
2026-04-30 20:53 49.55829 16.63537 38379 ft 457 kts 321°
2026-04-30 20:53 49.60232 16.56560 38392 ft 457 kts 321°
2026-04-30 20:54 49.66886 16.45981 38391 ft 458 kts 322°
2026-04-30 20:55 49.73488 16.35438 38401 ft 457 kts 322°
2026-04-30 20:55 49.77905 16.28361 38380 ft 456 kts 321°
2026-04-30 20:56 49.84518 16.17729 38389 ft 456 kts 321°
2026-04-30 20:57 49.91111 16.07084 38395 ft 457 kts 322°
2026-04-30 20:57 49.95485 15.99994 38423 ft 456 kts 322°
2026-04-30 20:58 50.02059 15.89303 38425 ft 454 kts 322°
2026-04-30 20:58 50.06407 15.82207 38421 ft 453 kts 322°
2026-04-30 20:59 50.12918 15.71546 38399 ft 454 kts 322°
2026-04-30 21:00 50.21586 15.57280 38430 ft 453 kts 322°
2026-04-30 21:01 50.28081 15.46538 38403 ft 453 kts 321°
2026-04-30 21:02 50.34566 15.35767 38429 ft 453 kts 321°
2026-04-30 21:02 50.38886 15.28566 38419 ft 453 kts 321°
2026-04-30 21:03 50.43206 15.21345 38422 ft 454 kts 321°
2026-04-30 21:03 50.47536 15.14086 38425 ft 454 kts 321°
2026-04-30 21:04 50.51821 15.06880 38419 ft 454 kts 321°
2026-04-30 21:04 50.58295 14.95955 38420 ft 454 kts 321°
2026-04-30 21:05 50.62597 14.88669 38419 ft 454 kts 321°
2026-04-30 21:05 50.66889 14.81380 38416 ft 454 kts 321°
2026-04-30 21:06 50.71189 14.74056 38426 ft 454 kts 321°
2026-04-30 21:06 50.75447 14.66781 38424 ft 454 kts 321°
2026-04-30 21:07 50.79729 14.59447 38417 ft 454 kts 321°
2026-04-30 21:07 50.84018 14.52077 38420 ft 453 kts 321°
2026-04-30 21:08 50.88280 14.44730 38415 ft 452 kts 321°
2026-04-30 21:08 50.92531 14.37414 38403 ft 450 kts 322°
2026-04-30 21:09 50.97136 14.30901 38399 ft 444 kts 326°
2026-04-30 21:09 51.01815 14.24486 38402 ft 445 kts 326°
2026-04-30 21:10 51.06522 14.18009 38402 ft 445 kts 326°
2026-04-30 21:10 51.11198 14.11556 38404 ft 446 kts 326°
2026-04-30 21:11 51.15888 14.05063 38409 ft 445 kts 326°
2026-04-30 21:11 51.20534 13.98613 38408 ft 445 kts 326°
2026-04-30 21:12 51.25188 13.92131 38408 ft 445 kts 326°
2026-04-30 21:12 51.29851 13.85617 38408 ft 445 kts 326°
2026-04-30 21:13 51.34491 13.79113 38405 ft 444 kts 326°
2026-04-30 21:13 51.39119 13.72607 38406 ft 445 kts 326°
2026-04-30 21:14 51.43769 13.66052 38406 ft 446 kts 326°
2026-04-30 21:14 51.48430 13.59468 38567 ft 448 kts 325°
2026-04-30 21:15 51.50756 13.56177 38440 ft 448 kts 325°
2026-04-30 21:15 51.53089 13.52869 38428 ft 446 kts 325°
2026-04-30 21:15 51.57713 13.46302 38435 ft 445 kts 325°
2026-04-30 21:16 51.62351 13.39696 38426 ft 445 kts 325°
2026-04-30 21:16 51.66963 13.33109 38420 ft 445 kts 324°
2026-04-30 21:17 51.71612 13.26440 38421 ft 446 kts 324°
2026-04-30 21:17 51.76249 13.19768 38419 ft 447 kts 324°
2026-04-30 21:18 51.80873 13.13097 38421 ft 447 kts 324°
2026-04-30 21:18 51.85522 13.06375 38427 ft 446 kts 324°
2026-04-30 21:19 51.90143 12.99672 38423 ft 446 kts 324°
2026-04-30 21:19 51.94761 12.92956 38416 ft 446 kts 323°
2026-04-30 21:20 51.99357 12.86252 38415 ft 447 kts 323°
2026-04-30 21:20 52.03912 12.79589 38416 ft 447 kts 323°
2026-04-30 21:21 52.08544 12.72793 38415 ft 448 kts 323°
2026-04-30 21:22 52.15419 12.62670 38417 ft 448 kts 323°
2026-04-30 21:23 52.24619 12.49052 38416 ft 447 kts 323°
2026-04-30 21:23 52.31127 12.38165 38130 ft 443 kts 319°
2026-04-30 21:24 52.33220 12.34548 37638 ft 434 kts 319°
2026-04-30 21:24 52.35442 12.31203 37170 ft 423 kts 323°
2026-04-30 21:24 52.37637 12.28060 36720 ft 416 kts 323°
2026-04-30 21:24 52.39817 12.24924 36282 ft 409 kts 323°
2026-04-30 21:25 52.44011 12.18880 35432 ft 396 kts 323°
2026-04-30 21:25 52.46074 12.15902 34995 ft 392 kts 323°
2026-04-30 21:25 52.48118 12.12952 34585 ft 394 kts 323°
2026-04-30 21:26 52.52243 12.06983 33711 ft 396 kts 323°
2026-04-30 21:26 52.54297 12.04003 33275 ft 395 kts 323°
2026-04-30 21:27 52.58362 11.98089 32413 ft 389 kts 323°
2026-04-30 21:27 52.60384 11.95142 31986 ft 386 kts 323°
2026-04-30 21:27 52.62366 11.92249 31564 ft 384 kts 323°
2026-04-30 21:28 52.66490 11.86807 30715 ft 377 kts 327°
2026-04-30 21:28 52.68564 11.84189 30291 ft 375 kts 327°
2026-04-30 21:28 52.72669 11.78994 29471 ft 370 kts 327°
2026-04-30 21:29 52.74680 11.76444 29070 ft 367 kts 327°
2026-04-30 21:29 52.80683 11.68814 27865 ft 361 kts 327°
2026-04-30 21:30 52.84668 11.63734 27063 ft 358 kts 327°
2026-04-30 21:31 52.90540 11.56225 25884 ft 353 kts 327°
2026-04-30 21:31 52.94373 11.51309 25115 ft 348 kts 327°
2026-04-30 21:32 52.98187 11.46408 24345 ft 344 kts 328°
2026-04-30 21:32 53.00050 11.44011 23966 ft 342 kts 328°
2026-04-30 21:32 53.01946 11.41568 23589 ft 341 kts 328°
2026-04-30 21:32 53.03803 11.39174 23214 ft 338 kts 328°
2026-04-30 21:33 53.05638 11.36807 22844 ft 337 kts 328°
2026-04-30 21:33 53.09304 11.32097 22100 ft 334 kts 327°
2026-04-30 21:33 53.11163 11.29705 21726 ft 333 kts 327°
2026-04-30 21:34 53.13050 11.27426 21347 ft 330 kts 330°
2026-04-30 21:34 53.16758 11.23156 20612 ft 327 kts 330°
2026-04-30 21:34 53.18583 11.21050 20263 ft 326 kts 330°
2026-04-30 21:35 53.20416 11.18933 19913 ft 325 kts 330°
2026-04-30 21:35 53.22273 11.16785 19545 ft 324 kts 330°
2026-04-30 21:35 53.24113 11.14655 19180 ft 322 kts 330°
2026-04-30 21:35 53.25962 11.12513 18830 ft 320 kts 330°
2026-04-30 21:36 53.27773 11.10412 18468 ft 319 kts 330°
2026-04-30 21:36 53.29590 11.08302 18122 ft 318 kts 330°
2026-04-30 21:37 53.35004 11.02004 17083 ft 316 kts 330°
2026-04-30 21:37 53.36817 10.99890 16733 ft 315 kts 330°
2026-04-30 21:37 53.38595 10.97815 16393 ft 314 kts 330°
2026-04-30 21:37 53.40387 10.95720 16051 ft 313 kts 330°
2026-04-30 21:38 53.42151 10.93657 15708 ft 312 kts 330°
2026-04-30 21:38 53.43927 10.91578 15362 ft 311 kts 330°
2026-04-30 21:38 53.45704 10.89495 15019 ft 310 kts 330°
2026-04-30 21:38 53.47462 10.87433 14677 ft 309 kts 330°
2026-04-30 21:39 53.49224 10.85363 14334 ft 308 kts 330°
2026-04-30 21:39 53.50970 10.83311 13996 ft 308 kts 330°
2026-04-30 21:39 53.52714 10.81259 13658 ft 307 kts 329°
2026-04-30 21:39 53.54462 10.79199 13318 ft 305 kts 329°
2026-04-30 21:40 53.56183 10.77169 12984 ft 304 kts 329°
2026-04-30 21:40 53.57926 10.75111 12645 ft 302 kts 329°
2026-04-30 21:40 53.59638 10.73088 12312 ft 301 kts 329°
2026-04-30 21:40 53.61272 10.70898 11955 ft 304 kts 318°
2026-04-30 21:41 53.62486 10.67977 11541 ft 309 kts 298°
2026-04-30 21:41 53.63044 10.64522 11289 ft 308 kts 277°
2026-04-30 21:41 53.62887 10.60933 11103 ft 312 kts 257°
2026-04-30 21:41 53.62254 10.57451 10971 ft 313 kts 252°
2026-04-30 21:42 53.61578 10.53926 10820 ft 314 kts 253°
2026-04-30 21:42 53.60914 10.50444 10674 ft 313 kts 253°
2026-04-30 21:42 53.60241 10.46927 10523 ft 312 kts 253°
2026-04-30 21:42 53.59581 10.43478 10374 ft 311 kts 253°
2026-04-30 21:43 53.58915 10.40006 10226 ft 310 kts 253°
2026-04-30 21:43 53.58484 10.37761 10126 ft 309 kts 253°
2026-04-30 21:43 53.57602 10.33177 9932 ft 309 kts 252°
2026-04-30 21:43 53.56939 10.29733 9778 ft 308 kts 252°
2026-04-30 21:44 53.56284 10.26340 9639 ft 306 kts 252°
2026-04-30 21:44 53.55622 10.22916 9484 ft 306 kts 251°
2026-04-30 21:44 53.54972 10.19557 9325 ft 305 kts 251°
2026-04-30 21:44 53.54314 10.16163 9203 ft 305 kts 251°
2026-04-30 21:45 53.53651 10.12750 9051 ft 305 kts 251°
2026-04-30 21:45 53.52997 10.09389 8898 ft 299 kts 251°
2026-04-30 21:45 53.52364 10.06139 8772 ft 291 kts 251°
2026-04-30 21:45 53.51740 10.02938 8626 ft 284 kts 251°
2026-04-30 21:46 53.51139 9.99864 8493 ft 275 kts 251°
2026-04-30 21:46 53.50543 9.96822 8356 ft 267 kts 251°
2026-04-30 21:46 53.49817 9.93983 8222 ft 264 kts 234°
2026-04-30 21:46 53.48686 9.91622 8083 ft 261 kts 227°
2026-04-30 21:47 53.47516 9.89290 7962 ft 261 kts 228°
2026-04-30 21:47 53.46343 9.86938 7847 ft 261 kts 228°
2026-04-30 21:47 53.45193 9.84634 7712 ft 260 kts 228°
2026-04-30 21:47 53.44034 9.82314 7604 ft 260 kts 228°
2026-04-30 21:48 53.42865 9.79977 7466 ft 259 kts 228°
2026-04-30 21:48 53.41704 9.77655 7364 ft 260 kts 228°
2026-04-30 21:48 53.40545 9.75339 7214 ft 258 kts 228°
2026-04-30 21:48 53.39395 9.73041 7089 ft 258 kts 227°
2026-04-30 21:49 53.38231 9.70718 6957 ft 257 kts 227°
2026-04-30 21:49 53.37089 9.68439 6849 ft 256 kts 227°
2026-04-30 21:49 53.35949 9.66168 6715 ft 255 kts 227°
2026-04-30 21:49 53.34801 9.63882 6598 ft 255 kts 227°
2026-04-30 21:50 53.33667 9.61626 6465 ft 253 kts 227°
2026-04-30 21:50 53.32522 9.59349 6348 ft 254 kts 227°
2026-04-30 21:50 53.31400 9.57085 6221 ft 254 kts 232°
2026-04-30 21:50 53.30749 9.54377 6083 ft 255 kts 267°
2026-04-30 21:51 53.31168 9.51563 5930 ft 250 kts 307°
2026-04-30 21:51 53.32391 9.49588 5793 ft 244 kts 331°
2026-04-30 21:51 53.33920 9.48442 5665 ft 240 kts 350°
2026-04-30 21:51 53.35562 9.48159 5541 ft 235 kts
2026-04-30 21:52 53.37145 9.48717 5421 ft 230 kts 25°
2026-04-30 21:52 53.38517 9.50015 5303 ft 225 kts 42°
2026-04-30 21:52 53.39630 9.51842 5188 ft 223 kts 52°
2026-04-30 21:52 53.40619 9.53833 5075 ft 223 kts 53°
2026-04-30 21:53 53.41596 9.55829 4961 ft 223 kts 53°
2026-04-30 21:53 53.42594 9.57837 4850 ft 223 kts 53°
2026-04-30 21:53 53.43595 9.59830 4736 ft 223 kts 52°
2026-04-30 21:53 53.44587 9.61804 4620 ft 221 kts 52°
2026-04-30 21:54 53.45535 9.63687 4668 ft 194 kts 52°
2026-04-30 21:54 53.46373 9.65353 4810 ft 185 kts 53°
2026-04-30 21:54 53.47196 9.67002 4789 ft 183 kts 53°
2026-04-30 21:54 53.48017 9.68644 4571 ft 183 kts 53°
2026-04-30 21:55 53.48832 9.70273 4212 ft 182 kts 52°
2026-04-30 21:55 53.49623 9.71853 3851 ft 173 kts 53°
2026-04-30 21:55 53.50371 9.73347 3549 ft 159 kts 53°
2026-04-30 21:55 53.51045 9.74693 3295 ft 140 kts 53°
2026-04-30 21:56 53.51624 9.75847 3175 ft 123 kts 53°
2026-04-30 21:56 53.52180 9.76968 3083 ft 124 kts 53°
2026-04-30 21:56 53.52740 9.78093 2922 ft 124 kts 53°
2026-04-30 21:56 53.53289 9.79196 2735 ft 124 kts 52°
2026-04-30 21:57 53.53846 9.80315 2546 ft 123 kts 52°
2026-04-30 21:57 53.54394 9.81414 2380 ft 122 kts 52°
2026-04-30 21:57 53.54938 9.82505 2215 ft 122 kts 52°
2026-04-30 21:57 53.55479 9.83593 2060 ft 122 kts 52°
2026-04-30 21:58 53.56025 9.84690 1892 ft 122 kts 52°
2026-04-30 21:58 53.56569 9.85768 1702 ft 119 kts 52°
2026-04-30 21:58 53.57113 9.86850 1485 ft 123 kts 51°
2026-04-30 21:58 53.57666 9.87966 1328 ft 124 kts 52°
2026-04-30 21:59 53.58221 9.89080 1200 ft 123 kts 51°
2026-04-30 21:59 53.58765 9.90185 1061 ft 123 kts 52°
2026-04-30 21:59 53.59316 9.91304 917 ft 123 kts 51°
2026-04-30 22:00 53.60408 9.93511 581 ft 123 kts 51°
2026-04-30 22:00 53.61503 9.95728 239 ft 123 kts 50°
2026-04-30 22:00 53.62052 9.96831 82 ft 121 kts 51°
2026-04-30 22:01 53.62555 9.97852 40 ft 97 kts 50°
2026-04-30 22:01 53.62810 9.98367 42 ft 42 kts 50°
2026-04-30 22:01 53.62985 9.98724 43 ft 29 kts 52°
2026-04-30 22:01 53.63074 9.98947 43 ft 21 kts 73°
2026-04-30 22:02 53.63092 9.99132 44 ft 13 kts 93°
2026-04-30 22:02 53.63050 9.99239 44 ft 13 kts 179°
2026-04-30 22:02 53.62970 9.99119 44 ft 18 kts 230°
2026-04-30 22:02 53.62893 9.98960 43 ft 13 kts 230°
2026-04-30 22:03 53.62835 9.98845 43 ft 14 kts 229°
2026-04-30 22:03 53.62777 9.98729 43 ft 12 kts 230°
2026-04-30 22:03 53.62733 9.98644 43 ft 7 kts 211°
2026-04-30 22:03 53.62690 9.98665 43 ft 7 kts 150°
2026-04-30 22:04 53.62673 9.98681 43 ft 1 kts 152°
2026-04-30 22:04 53.62658 9.98715 43 ft 5 kts 67°
2026-04-30 22:04 53.62676 9.98744 43 ft 0 kts 330°
2026-04-30 22:05 53.62676 9.98743 43 ft 0 kts 320°
2026-04-30 22:05 53.62676 9.98734 43 ft 0 kts 229°